Regional Weather Roundup
Issued by NWS

Home | Current Version | Previous Version | Graphics & Text | Print | Product List | Glossary On
Versions: 1 2 3 4 5 6 7 8 9 10 11 12 13 14 15 16 17 18 19 20 21 22 23 24 25 26 27 28 29 30 31 32 33 34 35 36 37 38 39 40 41 42 43 44 45 46 47 48 49 50
000
ASUS43 KIND 251609
RWRIN

WEATHER ROUNDUP FOR INDIANA
NATIONAL WEATHER SERVICE INDIANAPOLIS IN
1200 PM EDT MON MAY 25 2015

NOTE: "FAIR" INDICATES FEW OR NO CLOUDS BELOW 12,000 FEET WITH NO
SIGNIFICANT WEATHER AND/OR OBSTRUCTIONS TO VISIBILITY.

* - STATION DOES NOT REPORT WEATHER SUCH AS PRECIPITATION OR FOG.

+ - STATION NOT QUALITY CONTROLLED BY THE NATIONAL WEATHER SERVICE.
    USE DATA WITH CAUTION...ESPECIALLY DEWPOINT AND RELATIVE
    HUMIDITY OBSERVATIONS.

INZ001>003-010>013-019-020-251700-
NORTHWEST INDIANA

CITY           SKY/WX    TMP DP  RH WIND       PRES   REMARKS
GARY /AIRPORT/ CLOUDY    72  68  88 SW14G28   29.90S
KNOX *+        PTSUNNY   77  61  57 S29G37    29.93F
LA PORTE +     CLOUDY    75  65  70 S21G30    29.93S
MICHIGAN CITY+ RAIN      73  63  68 SW17G25   29.92R
MONTICELLO +   CLOUDY    74  65  73 SW23G30   29.97S
RENSSELAER +   PTSUNNY   77  64  65 S32G40    29.94S
VALPARAISO     PTSUNNY   77  62  59 SW25G40   29.93R

$$

LMZ046-743>745-251700-
SOUTHERN LAKE MICHIGAN

STATION/POSITION TIME  TEMP    WIND        PRES    WAVE
                       AIR SEA DIR/SP/G            HT
                 (UTC) (F)     (DEG/KT/KT) (MB)    (FT)
BURNS HARBOR     1600   74     210/ 24/ 35 1012.2F
MICHIGAN CITY    1600   73     190/ 17/ 23   N/A
5NW MICH CITY    1600   64 52  230/ 14/ 19   N/A     4

$$

INZ004-005-014>016-021>024-251700-
NORTH CENTRAL INDIANA

CITY           SKY/WX    TMP DP  RH WIND       PRES   REMARKS
ELKHART        PTSUNNY   73  64  73 S17G28    29.95S
GOSHEN         PTSUNNY   75  65  70 S31G39    29.96S
LOGANSPORT +   CLOUDY    72  61  68 S26       30.01S
PERU/GRISSOM   CLOUDY    72  65  77 SW18G29   30.01R
ROCHESTER +    PTSUNNY   73  66  78 S17G24    30.00R
SOUTH BEND     PTSUNNY   76  65  68 S23G40    29.93S
WARSAW +       CLOUDY    72  64  78 S12G26    29.99R

$$

INZ006>009-017-018-025>027-251700-
NORTHEAST INDIANA

CITY           SKY/WX    TMP DP  RH WIND       PRES   REMARKS
ANGOLA *+        N/A     70  66  88 SW18      30.00R
AUBURN +       CLOUDY    73  61  64 SW9G22    30.01S
FORT WAYNE     CLOUDY    75  64  68 SW28G36   30.02S
HUNTINGTON +   CLOUDY    73  63  70 SW20G29   30.02R

$$

INZ028-029-035-036-043>045-051>053-251700-
WEST CENTRAL INDIANA

CITY           SKY/WX    TMP DP  RH WIND       PRES   REMARKS
CRAWFORDSVL +  CLOUDY    69  60  73 S21G26    30.05R
GREENCASTLE +  CLOUDY    66  63  88 S5        30.08R FOG
LAFAYETTE      CLOUDY    74  63  68 SW15G28   29.99S
TERRE HAUTE    PTSUNNY   73  67  81 S16G25    30.06R

$$

INZ030>032-037>040-046>048-054>057-064-065-251700-
CENTRAL INDIANA

CITY           SKY/WX    TMP DP  RH WIND       PRES   REMARKS
CP ATTERBURY + DRIZZLE   70  63  78 S12G21    30.11R
FRANKFORT +    PTSUNNY   73  65  77 S21G31    30.05R
GREENWOOD *+   CLOUDY    72  63  73 SW20G25   30.09R
INDIANAPOLIS   CLOUDY    71  63  75 S18       30.06R
-EAGLE CREEK   CLOUDY    70  64  81 S10G20    30.06R
KOKOMO *+      CLOUDY    72  64  78 SW21G29   30.03S
MARION +       CLOUDY    73  61  65 SW26G36   30.04S
MT COMFORT *+  CLOUDY    72  61  68 S16G24    30.08R
SHELBYVILLE    CLOUDY    72  64  76 S18       30.09R
ZIONSVILLE +   CLOUDY    72  63  73 SW15G25   30.07R

$$

INZ033-034-041-042-049-050-058-059-251700-
EAST CENTRAL INDIANA

CITY           SKY/WX    TMP DP  RH WIND       PRES   REMARKS
MUNCIE         CLOUDY    73  63  70 SW14G24   30.06R

$$

INZ060-061-067>069-081>083-085>088-251700-
SOUTHWEST INDIANA

CITY           SKY/WX    TMP DP  RH WIND       PRES   REMARKS
EVANSVILLE     PTSUNNY   74  66  76 S15       30.11R
HUNTINGBURG *+ CLOUDY    72  64  78 S15       30.12R
WASHINGTON +   CLOUDY    73  65  77 SW16G24   30.08S

$$

INZ062-063-066-070>080-084-089>092-251700-
SOUTH CENTRAL AND SOUTHEAST INDIANA

CITY           SKY/WX    TMP DP  RH WIND       PRES   REMARKS
BLOOMINGTON    CLOUDY    71  65  81 SW14      30.10R
MADISON *+     CLOUDY    70  63  78 S17G23    30.16S
NORTH VERNON + CLOUDY    70  70 100 S14G21    30.13R
SEYMOUR +      CLOUDY    72  64  78 S16G25    30.12R

$$



USA.gov is the U.S. government's official web portal to all federal, state and local government web resources and services.